Location: Bergheim
(50.9593°N, 6.6400°E)
Time: 19:57:04
(UTC+01:00)

ISS - Pass Details

Date: 24 November 2019
Orbit: 411 x 421 km, 51.6° (Epoch: 10 December)

Event Time Altitude Azimuth Distance (km) Brightness Sun altitude
Rises 18:24:08 0° 216° (SW) 2,347 0.8 -16.5°
Reaches altitude 10° 18:26:26 10° 203° (SSW) 1,490 -0.5 -16.8°
Maximum altitude 18:29:14 25° 146° (SE) 889 -2.3 -17.3°
Enters shadow 18:29:20 25° 143° (SE) 891 -2.4 -17.3°
